TITAN 3C TRANSTAGE R/B, 2868

Orbit data source: Space-Track

TITAN 3C TRANSTAGE R/B, 2868 is space debris in GEO originally from a launch on Sat, 01 Jul 1967 UTC launched from the Air Force Eastern Test Range (AFETR). Debris objects in space refer to the collection of defunct objects orbiting the Earth. Examples of debris include non-operational satellites, rocket bodies, and fragments generated from explosions, collisions, or faulty payload assembly.

Not visible in the next 10 days
Identifier
2868, 1967-066G
Orbit
GEO
Country
Flag of USUS
Related business
Manufacturer
Martin Marietta
Mission
Spacecraft
Bus & Motor
TRANSTAGE, Unknown motor
Mass
2,176 kg wet, 2,050 kg dry
Launch date (UTC)
1967-07-01 (58 years ago)
Launch vehicle
Unknown
Launch site
Air Force Eastern Test Range (AFETR)
Object type
Payload
Rocket body
Debris
Shape & HBR
Unknown
Radar Cross Section
Large (>1 m²)

Expand to show TLE details & history
Last TLE update: 7 hours ago

TLE from 7 hours ago
0 TITAN 3C TRANSTAGE R/B
1  2868U 67066G   25289.11863917 -.00000086  00000-0  00000+0 0  9995
2  2868   1.7924 106.9740 0084085 161.5038 112.0547  1.08907582125676
Epoch: 2025-10-16T02:50Z
TLE epoch observation values (Epoch: 2025-10-16T02:50:50.424Z)
Latitude
-1.78466°
Longitude
-46.18881°
Altitude
33,655.383 km
Speed
3.15 km/s
True Right ascension
01h 25m 37s
True Declination
-1° 46' 58"
Sunlit
Object was in daylight at epoch
Visualization orbit readout
Latitude
Unknown
Longitude
Unknown
Altitude
Unknown
Speed
Unknown
Apparent Right ascension
Unknown
Apparent Declination
Unknown
Sunlit
N/A
Visualization observer readout
Local Sidereal Time
04:36:17
Azimuth
Unknown
Elevation
Unknown
Doppler factor
Unknown
Orbital elements
Apogee altitude
33,863.767 km
Perigee altitude
33,192.662 km
Semi-major axis
39,906.352 km
Eccentricity
0.00841
Inclination
1.7924°
RAAN
106.974°
Arg. of periapsis
161.5038°
True anomaly
112.94419°
Mean anomaly
112.0547°
Eccentric anomaly
112.4998°
Mean motion
0.27226 °/min
Orbital period
1,322.28 mins
BSTAR
0
Loading maneuver chart data...
Computing Atmospheric mass density...
Loading historical data...
Loading historical data...
Loading historical data...
Loading historical data...
Loading historical data...
Loading historical data...
Loading historical data...

Documentation

Showing up to 5 results
|